Tracking 25693 objects as of 1-Jul-2022
HD Live streaming from Space Station
objects crossing your sky now

STARLINK-3609

Track STARLINK-3609 now!
10-day predictions
STARLINK-3609 is classified as:


NORAD ID: 51808
Int'l Code: 2022-017AS
Perigee: 545.6 km
Apogee: 548.1 km
Inclination: 53.2 °
Period: 95.4 minutes
Semi major axis: 6917 km
RCS: Unknown
Launch date: February 25, 2022
Source: United States (US)
Launch site: AIR FORCE WESTERN TEST RANGE (AFWTR)
aabbcc
Your satellite tracking list
Your tracking list is empty




NASA's NSSDC Master Catalog

Two Line Element Set (TLE):
1 51808U 22017AS  22181.91667824 -.00031793  00000-0 -19876-2 0  9999
2 51808  53.2190 269.5092 0001832  47.3556  21.4426 15.08852888  1307
Source of the keplerian elements: AFSPC